This is the latest recevied weather packets stored in our database for station/object KB3AWQ. If no packets are shown the sender has not sent any weather packets the latest 10 day(s).
| Time | Temp. | Humidity | Pressure | Rain* | Wind** | Luminosity | Snow |
|---|---|---|---|---|---|---|---|
| 1787868566 | 26.67° C | 82% | 1012.8 hPa | 0.25 mm | - | 76 W/m² | - |
| 1787868266 | 26.67° C | 81% | 1012.9 hPa | 0.25 mm | - | 117 W/m² | - |
| 1787867966 | 27.22° C | 81% | 1012.8 hPa | 0.25 mm | - | 112 W/m² | - |
| 1787867666 | 27.22° C | 80% | 1012.7 hPa | 0.25 mm | - | 131 W/m² | - |
| 1787867367 | 27.78° C | 79% | 1012.5 hPa | 0.25 mm | - | 131 W/m² | - |
| 1787867066 | 27.78° C | 79% | 1012.7 hPa | 0.25 mm | - | 111 W/m² | - |
| 1787866768 | 27.78° C | 81% | 1012.8 hPa | 0.25 mm | - | 83 W/m² | - |
| 1787866467 | 27.78° C | 79% | 1012.8 hPa | 0 mm | - | 106 W/m² | - |
| 1787866166 | 27.78° C | 80% | 1012.9 hPa | 0 mm | - | 201 W/m² | - |
| 1787865866 | 27.78° C | 81% | 1012.9 hPa | 0 mm | - | 198 W/m² | - |
| 1787865567 | 28.33° C | 77% | 1012.9 hPa | 0 mm | - | 108 W/m² | - |
| 1787865268 | 28.33° C | 76% | 1013 hPa | 0 mm | - | 68 W/m² | - |
| 1787864967 | 28.33° C | 73% | 1012.8 hPa | 0 mm | - | 69 W/m² | - |
| 1787864666 | 28.89° C | 72% | 1012.8 hPa | 0 mm | - | 63 W/m² | - |
| 1787864366 | 28.89° C | 69% | 1012.8 hPa | 0 mm | - | 79 W/m² | - |
| 1787864066 | 29.44° C | 65% | 1012.9 hPa | 0 mm | - | 61 W/m² | - |
| 1787863769 | 29.44° C | 64% | 1012.8 hPa | 0 mm | - | 51 W/m² | - |
| 1787863466 | 30° C | 68% | 1012.8 hPa | 0 mm | - | 115 W/m² | - |
| 1787862945 | 30.56° C | 63% | 1013 hPa | 0 mm | - | 153 W/m² | - |
| 1787862566 | 30.56° C | 59% | 1013.1 hPa | 0 mm | - | 169 W/m² | - |
| 1787862266 | 30° C | 60% | 1013 hPa | 0 mm | - | 375 W/m² | - |
| 1787861966 | 30° C | 61% | 1013.1 hPa | 0 mm | - | 329 W/m² | - |
| 1787861666 | 30° C | 60% | 1013.2 hPa | 0 mm | - | 171 W/m² | - |
| 1787861368 | 30° C | 61% | 1013.3 hPa | 0 mm | - | 155 W/m² | - |
| 1787861066 | 30.56° C | 58% | 1013.4 hPa | 0 mm | - | 218 W/m² | - |
* Rain latest hour (hover to see other rain measurements)
** Current wind speed in m/s (hover to see current wind gust speed)